This is the latest recevied weather packets stored in our database for station/object WP3XM. If no packets are shown the sender has not sent any weather packets the latest 1 day(s).
| Time | Temp. | Humidity | Pressure | Rain* | Wind** | Luminosity | Snow |
|---|---|---|---|---|---|---|---|
| 1778034137 | 26.11° C | 84% | 1019.4 hPa | 0 mm | 0.89 m/s, 94° | 0 W/m² | - |
| 1778033835 | 26.11° C | 84% | 1019.5 hPa | 0 mm | 0.89 m/s, 166° | 0 W/m² | - |
| 1778033532 | 26.11° C | 84% | 1019.3 hPa | 0 mm | 0.89 m/s, 138° | 0 W/m² | - |
| 1778033228 | 26.11° C | 83% | 1019.2 hPa | 0 mm | 0.89 m/s, 161° | 0 W/m² | - |
| 1778032926 | 26.67° C | 83% | 1019.3 hPa | 0 mm | 1.34 m/s, 119° | 0 W/m² | - |
| 1778032623 | 26.67° C | 83% | 1019.5 hPa | 0 mm | 0 m/s | 0 W/m² | - |
| 1778032321 | 26.67° C | 83% | 1019.2 hPa | 0 mm | 0.89 m/s, 155° | 0 W/m² | - |
| 1778032018 | 26.67° C | 82% | 1019.4 hPa | 0 mm | 1.34 m/s, 197° | 0 W/m² | - |
| 1778031714 | 26.67° C | 82% | 1019.3 hPa | 0 mm | 0.45 m/s, 139° | 0 W/m² | - |
| 1778031412 | 26.67° C | 82% | 1019.3 hPa | 0 mm | 0.45 m/s, 134° | 0 W/m² | - |
| 1778031109 | 26.67° C | 82% | 1019.3 hPa | 0 mm | 0.45 m/s, 104° | 0 W/m² | - |
| 1778030805 | 26.67° C | 82% | 1019.3 hPa | 0 mm | 0.45 m/s, 180° | 0 W/m² | - |
| 1778030502 | 26.67° C | 81% | 1019.3 hPa | 0 mm | 0.45 m/s, 182° | 0 W/m² | - |
| 1778030199 | 26.67° C | 81% | 1019.3 hPa | 0 mm | 0.45 m/s, 176° | 0 W/m² | - |
| 1778029895 | 26.67° C | 81% | 1019.4 hPa | 0 mm | 0.45 m/s, 103° | 0 W/m² | - |
| 1778029594 | 26.67° C | 80% | 1019.3 hPa | 0 mm | 0 m/s | 0 W/m² | - |
| 1778029291 | 27.22° C | 80% | 1019.3 hPa | 0 mm | 0.45 m/s, 92° | 0 W/m² | - |
| 1778028988 | 27.22° C | 80% | 1019.2 hPa | 0 mm | 0.45 m/s, 180° | 0 W/m² | - |
| 1778028684 | 27.22° C | 79% | 1019.2 hPa | 0 mm | 0.89 m/s, 100° | 0 W/m² | - |
| 1778028381 | 27.78° C | 79% | 1019.1 hPa | 0 mm | 0.45 m/s, 184° | 0 W/m² | - |
| 1778028078 | 27.78° C | 78% | 1019 hPa | 0 mm | 0.45 m/s, 131° | 0 W/m² | - |
| 1778027774 | 27.78° C | 79% | 1018.9 hPa | 0 mm | 0.89 m/s, 131° | 0 W/m² | - |
| 1778027470 | 27.22° C | 81% | 1018.8 hPa | 0 mm | 0.45 m/s, 110° | 0 W/m² | - |
| 1778027166 | 26.67° C | 81% | 1019 hPa | 0 mm | 0.89 m/s, 186° | 0 W/m² | - |
| 1778026862 | 26.67° C | 81% | 1018.9 hPa | 0 mm | 1.34 m/s, 181° | 0 W/m² | - |
* Rain latest hour (hover to see other rain measurements)
** Current wind speed in m/s (hover to see current wind gust speed)